[[{"header":{"parameterUnit":"m.s-1","parameterCategory":1,"la1":30.2992,"la2":30.254,"lo1":-89.0895,"lo2":-89.0443,"dy":0.0025,"dx":0.0025,"nx":19,"ny":19,"refTime":"2026-05-12T21:00:00:Z","depth":0,"parameterNumber":2,"parameterNumberName":"U-component_of_WINDS"},"data":[0,0,0,-0.1859,-0.1858,-0.1788,-0.1787,-0.1723,-0.1723,0,0,0,0,0,0,0,0,0,0,0,-0.1897,-0.1897,-0.1859,-0.1858,-0.1788,-0.1787,-0.1723,-0.1723,0,0,0,0,0,0,0,0,0,0,0,-0.1897,-0.1897,-0.1897,-0.1858,-0.1788,-0.1787,-0.1723,-0.1767,0,0,0,0,0,0,0,0,0,0,-0.1831,-0.1882,-0.1897,-0.1897,-0.1858,-0.1788,-0.1787,-0.1769,-0.1764,-0.1767,0,-0.1774,0,-0.1748,-0.172,-0.172,0,0,0,-0.1845,-0.1886,-0.1852,-0.1897,-0.1857,-0.1788,-0.1816,-0.1766,-0.1761,-0.1761,-0.1773,-0.177,-0.1747,-0.172,-0.172,-0.1779,-0.178,0,0,-0.1849,-0.1893,-0.1856,-0.185,-0.1863,-0.1818,-0.1814,-0.1763,-0.1778,-0.1773,-0.1768,-0.1746,-0.172,-0.172,-0.1778,-0.1779,0,0,0,-0.1869,-0.1896,-0.1863,-0.1853,-0.1839,-0.1816,-0.1811,-0.178,-0.1766,-0.1767,-0.1745,-0.172,-0.1719,-0.1777,-0.1778,-0.1866,0,0,0,-0.1871,-0.1908,-0.1865,-0.1891,-0.184,-0.1809,-0.1831,-0.1769,-0.1762,-0.1745,-0.172,-0.1719,-0.1776,-0.1778,-0.1861,-0.19,0,0,0,-0.1896,-0.191,-0.1906,-0.1894,-0.1865,-0.1808,-0.179,-0.1767,-0.1749,-0.172,-0.1719,-0.1775,-0.1777,-0.1857,-0.1893,-0.193,0,0,0,-0.1935,-0.1984,-0.1908,-0.1954,-0.1866,-0.1863,-0.179,-0.1785,-0.1771,-0.172,-0.1776,-0.1778,-0.1856,-0.1889,-0.1926,-0.1969,-0.1991,0,0,-0.2021,-0.1996,-0.2019,-0.195,-0.1971,-0.187,-0.1904,-0.1848,-0.1804,-0.179,-0.179,-0.1863,-0.1893,-0.1929,-0.2097,-0.2115,0,0,0,-0.2062,-0.2079,-0.2075,-0.2064,-0.2023,-0.1991,-0.1926,-0.1905,-0.1891,-0.1806,-0.1883,-0.19,-0.1919,-0.1938,-0.1953,-0.1968,-0.1789,-0.1788,-0.1788,-0.2248,-0.219,-0.2225,-0.2159,-0.2149,-0.2081,-0.2067,-0.2027,-0.1971,-0.199,-0.1986,-0.2095,-0.2119,-0.213,-0.2146,-0.2003,-0.2003,-0.2004,-0.2004,-0.237,-0.2387,-0.2311,-0.2318,-0.2256,-0.2261,-0.2197,-0.2157,-0.2153,-0.2093,-0.2107,-0.2049,-0.2152,-0.2162,-0.201,-0.2009,-0.2008,-0.2007,-0.2007,-0.2487,-0.2485,-0.2459,-0.2437,-0.2426,-0.2356,-0.2356,-0.2298,-0.2244,-0.2258,-0.2248,-0.2247,-0.2239,-0.2257,-0.2258,-0.2258,-0.2258,-0.2259,-0.2259,-0.262,-0.2588,-0.2595,-0.2556,-0.2541,-0.2514,-0.2446,-0.243,-0.2397,-0.2355,-0.2355,-0.2298,-0.2172,-0.2143,-0.2265,-0.2264,-0.2263,-0.2262,-0.2262,-0.2769,-0.2726,-0.2738,-0.2723,-0.2672,-0.2666,-0.2592,-0.2564,-0.2541,-0.2543,-0.2482,-0.2398,-0.2368,-0.2355,-0.2331,-0.2494,-0.2494,-0.2494,-0.2494,-0.287,-0.2848,-0.2847,-0.2828,-0.2802,-0.2737,-0.2751,-0.2698,-0.2636,-0.2619,-0.2586,-0.2548,-0.2538,-0.2514,-0.2498,-0.2474,-0.267,-0.267,-0.267,-0.2958,-0.2932,-0.2956,-0.2896,-0.2852,-0.2815,-0.2827,-0.2807,-0.2728,-0.2676,-0.2604,-0.2597,-0.2535,-0.2517,-0.2467,-0.2443,-0.2398,0,0]},{"header":{"parameterUnit":"m.s-1","parameterCategory":1,"la1":30.2992,"la2":30.254,"lo1":-89.0895,"lo2":-89.0443,"dy":0.0025,"dx":0.0025,"nx":19,"ny":19,"refTime":"2026-05-12T21:00:00:Z","depth":0,"parameterNumber":3,"parameterNumberName":"V-component_of_WINDS"},"data":[0,0,0,-1.9337,-1.9335,-1.9238,-1.9238,-1.9107,-1.9106,0,0,0,0,0,0,0,0,0,0,0,-1.9363,-1.9362,-1.9338,-1.9335,-1.9238,-1.9238,-1.9107,-1.9106,0,0,0,0,0,0,0,0,0,0,0,-1.9364,-1.9363,-1.9361,-1.9335,-1.9238,-1.9238,-1.9107,-1.9183,0,0,0,0,0,0,0,0,0,0,-1.9278,-1.9299,-1.9363,-1.9361,-1.9334,-1.9238,-1.9238,-1.9186,-1.9178,-1.9149,0,-1.9123,0,-1.9112,-1.9097,-1.9096,0,0,0,-1.9336,-1.9306,-1.9283,-1.9361,-1.9333,-1.9238,-1.9282,-1.9182,-1.9172,-1.9137,-1.9121,-1.9116,-1.911,-1.9096,-1.9095,-1.8927,-1.8926,0,0,-1.9342,-1.9344,-1.929,-1.9277,-1.9293,-1.9285,-1.9279,-1.9176,-1.9158,-1.9121,-1.9113,-1.9108,-1.9095,-1.9094,-1.8927,-1.8926,0,0,0,-1.9356,-1.9347,-1.9327,-1.9282,-1.9265,-1.9282,-1.9275,-1.9162,-1.9156,-1.9112,-1.9107,-1.9094,-1.9093,-1.8928,-1.8927,-1.889,0,0,0,-1.936,-1.9356,-1.9329,-1.9329,-1.9267,-1.9213,-1.9264,-1.9163,-1.9151,-1.9107,-1.9094,-1.9091,-1.8929,-1.8928,-1.8893,-1.8872,0,0,0,-1.937,-1.9357,-1.9342,-1.9329,-1.9288,-1.9214,-1.9202,-1.916,-1.9147,-1.9096,-1.9091,-1.893,-1.8928,-1.8895,-1.8876,-1.883,0,0,0,-1.9382,-1.9307,-1.9342,-1.9256,-1.9289,-1.9192,-1.9202,-1.9129,-1.908,-1.9093,-1.8929,-1.8927,-1.8896,-1.8879,-1.8833,-1.8794,-1.8778,0,0,-1.9289,-1.9296,-1.9245,-1.9274,-1.9172,-1.9207,-1.9098,-1.905,-1.9042,-1.8965,-1.8961,-1.8892,-1.8876,-1.8831,-1.868,-1.8667,0,0,0,-1.9217,-1.9181,-1.9153,-1.9109,-1.9072,-1.904,-1.9008,-1.8991,-1.8927,-1.9003,-1.8861,-1.8852,-1.8826,-1.8807,-1.8796,-1.8774,-1.8918,-1.8918,-1.8918,-1.9087,-1.9084,-1.9001,-1.8987,-1.8943,-1.8914,-1.8878,-1.8849,-1.8855,-1.8822,-1.88,-1.8709,-1.8687,-1.8678,-1.8656,-1.8777,-1.8776,-1.8776,-1.8776,-1.8952,-1.8902,-1.8916,-1.8841,-1.8838,-1.8774,-1.8742,-1.875,-1.869,-1.8724,-1.87,-1.8741,-1.8664,-1.8644,-1.8773,-1.8774,-1.8774,-1.8774,-1.8775,-1.8869,-1.8845,-1.8827,-1.8765,-1.8717,-1.8704,-1.8647,-1.8644,-1.8641,-1.8617,-1.8596,-1.8596,-1.8599,-1.8607,-1.8606,-1.8606,-1.8606,-1.8606,-1.8605,-1.8791,-1.8772,-1.8727,-1.8684,-1.8657,-1.8621,-1.8591,-1.8564,-1.8533,-1.8535,-1.8535,-1.8546,-1.8657,-1.8686,-1.86,-1.8601,-1.8602,-1.8602,-1.8603,-1.866,-1.869,-1.8619,-1.8593,-1.8544,-1.8498,-1.8496,-1.8441,-1.8417,-1.839,-1.8406,-1.8488,-1.8494,-1.8503,-1.8528,-1.8406,-1.8406,-1.8406,-1.8406,-1.8592,-1.8596,-1.8525,-1.8483,-1.8441,-1.8433,-1.8354,-1.833,-1.831,-1.8296,-1.8313,-1.8344,-1.8353,-1.8354,-1.8367,-1.839,-1.8235,-1.8235,-1.8235,-1.8513,-1.8513,-1.8447,-1.8431,-1.8394,-1.8361,-1.8287,-1.8238,-1.822,-1.8228,-1.8285,-1.8293,-1.8343,-1.8359,-1.837,-1.8389,-1.8431,0,0]}]]